Simultaneous Nadir Overpasses (SNOs) Predictions

Prediction of SNOs between METOP-A and TERRA Satellite Orbit:

Table of predicted SNOs for the next 14.0 days since TLE Epoch: 4/19/2014
Index Date (METOP-A) Time (METOP-A) Lat,Lon (METOP-A) SZA (METOP-A ) Date (TERRA) Time (TERRA) Lat,Lon (TERRA) SZA (TERRA ) Distance(km) Time Diff (sec)
1 04/20/2014 23:39:38 81.28,-128.18 72.36 04/20/2014 23:40:40 81.27,-128.37 72.36 3.17 62
2 04/21/2014 00:30:18 -81.28, 39.56 107.61 04/21/2014 00:30:06 -81.29, 39.51 107.62 1.01 12
3 04/23/2014 19:14:03 81.27, -61.92 71.42 04/23/2014 19:14:51 81.28, -61.74 71.47 3.27 48
4 04/23/2014 20:04:43 -81.28, 105.82 108.55 04/23/2014 20:04:18 -81.28, 105.79 108.57 0.66 25
5 04/26/2014 14:48:27 81.28, 4.63 70.54 04/26/2014 14:49:02 81.28, 4.62 70.55 0.23 35
6 04/26/2014 15:39:08 -81.28, 171.99 109.47 04/26/2014 15:38:29 -81.27, 172.17 109.47 3.19 39
7 04/29/2014 10:22:50 81.28, 71.09 69.68 04/29/2014 10:23:11 81.28, 71.08 69.68 0.13 21
8 04/29/2014 11:13:30 -81.28,-121.16 110.29 04/29/2014 11:12:38 -81.27,-121.34 110.34 3.03 52
9 05/02/2014 05:57:13 81.28, 137.84 68.88 05/02/2014 05:57:20 81.28, 137.65 68.86 3.24 7




NCC Satellite Simultaneous Nadir Overpasses (SNOs) Prediction Service
